| time (UTC) | temp C | wind direction | speed KPH | gust KPH | rain 1hr cm | rain 24hr cm | rain mn cm | humidity % | barometer mb |
| 20260507113010 | 16 | 205 | 0.0 | 0.0 | 0.00 | 0.33 | 0.03 | 74 | 1013.9 |
| 20260507111510 | 16 | 198 | 0.0 | 0.0 | 0.00 | 0.33 | 0.03 | 73 | 1013.9 |
| 20260507110010 | 17 | 138 | 0.0 | 0.0 | 0.00 | 0.33 | 0.03 | 71 | 1014.0 |
| 20260507104511 | 17 | 106 | 0.0 | 0.0 | 0.00 | 0.33 | 0.03 | 70 | 1013.9 |
| 20260507103008 | 17 | 104 | 0.0 | 0.0 | 0.00 | 0.33 | 0.03 | 68 | 1014.0 |
| 20260507101514 | 17 | 103 | 0.0 | 0.0 | 0.00 | 0.33 | 0.03 | 70 | 1014.0 |
| 20260507100007 | 16 | 97 | 0.0 | 0.0 | 0.00 | 0.46 | 0.03 | 71 | 1014.2 |
| 20260507094507 | 17 | 96 | 0.0 | 0.0 | 0.00 | 0.46 | 0.03 | 69 | 1014.2 |
| 20260507093009 | 17 | 103 | 0.0 | 0.0 | 0.00 | 0.46 | 0.03 | 71 | 1014.0 |
| 20260507091502 | 16 | 97 | 0.0 | 0.0 | 0.00 | 0.46 | 0.03 | 75 | 1014.0 |
| 20260507090111 | 15 | 108 | 0.0 | 0.0 | 0.00 | 0.46 | 0.03 | 78 | 1014.0 |
| 20260507084555 | 15 | 110 | 0.0 | 0.0 | 0.00 | 0.71 | 0.03 | 79 | 1014.0 |
| 20260507083050 | 13 | 184 | 0.0 | 0.0 | 0.00 | 0.71 | 0.03 | 85 | 1014.0 |
| 20260507081545 | 12 | 191 | 0.0 | 0.0 | 0.00 | 0.71 | 0.03 | 86 | 1014.1 |
| 20260507080042 | 12 | 240 | 0.0 | 0.0 | 0.00 | 0.71 | 0.03 | 88 | 1014.0 |
| 20260507074542 | 12 | 240 | 0.0 | 0.0 | 0.00 | 1.09 | 0.03 | 88 | 1013.9 |
| 20260507073039 | 12 | 240 | 0.0 | 0.0 | 0.00 | 1.09 | 0.03 | 90 | 1013.8 |
| 20260507071535 | 11 | 240 | 0.0 | 0.0 | 0.00 | 1.09 | 0.03 | 91 | 1013.7 |
| 20260507070034 | 11 | 240 | 0.0 | 0.0 | 0.00 | 1.45 | 0.03 | 92 | 1013.7 |
| 20260507064531 | 11 | 240 | 0.0 | 0.0 | 0.00 | 1.45 | 0.03 | 92 | 1013.6 |
| 20260507063030 | 10 | 240 | 0.0 | 0.0 | 0.00 | 1.45 | 0.03 | 92 | 1013.6 |
| 20260507061527 | 10 | 240 | 0.0 | 0.0 | 0.00 | 1.45 | 0.03 | 92 | 1013.6 |
| 20260507060023 | 10 | 240 | 0.0 | 0.0 | 0.00 | 1.85 | 0.03 | 92 | 1013.5 |
| 20260507054518 | 10 | 240 | 0.0 | 0.0 | 0.00 | 1.85 | 0.03 | 92 | 1013.6 |
| 20260507053016 | 10 | 240 | 0.0 | 0.0 | 0.00 | 1.85 | 0.03 | 91 | 1013.4 |
| 20260507051514 | 9 | 240 | 0.0 | 0.0 | 0.00 | 1.85 | 0.03 | 91 | 1013.2 |
| 20260507050012 | 9 | 240 | 0.0 | 0.0 | 0.00 | 2.18 | 0.03 | 91 | 1013.0 |
| 20260507044511 | 9 | 240 | 0.0 | 0.0 | 0.00 | 2.18 | 0.03 | 91 | 1012.9 |
| 20260507043009 | 9 | 240 | 0.0 | 0.0 | 0.00 | 2.18 | 0.03 | 91 | 1012.9 |
| 20260507041523 | 9 | 240 | 0.0 | 0.0 | 0.00 | 2.18 | 0.03 | 91 | 1012.8 |
| 20260507040008 | 9 | 240 | 0.0 | 0.0 | 0.00 | 2.39 | 0.03 | 91 | 1012.8 |
| 20260507034512 | 9 | 240 | 0.0 | 0.0 | 0.00 | 2.39 | 0.03 | 91 | 1012.8 |
| 20260507033009 | 9 | 240 | 0.0 | 0.0 | 0.00 | 2.39 | 0.03 | 91 | 1012.7 |
| 20260507031505 | 9 | 240 | 0.0 | 0.0 | 0.00 | 2.39 | 0.03 | 91 | 1012.5 |
| 20260507030004 | 9 | 240 | 0.0 | 0.0 | 0.00 | 2.41 | 0.03 | 91 | 1012.6 |
| 20260507024505 | 9 | 240 | 0.0 | 0.0 | 0.00 | 2.41 | 0.03 | 90 | 1012.6 |
| 20260507023001 | 9 | 240 | 0.0 | 0.0 | 0.00 | 2.41 | 0.03 | 90 | 1012.5 |
| 20260507021600 | 10 | 240 | 0.0 | 0.0 | 0.00 | 2.41 | 0.03 | 90 | 1012.3 |
| 20260507020059 | 10 | 240 | 0.0 | 0.0 | 0.00 | 2.41 | 0.03 | 91 | 1012.3 |
| 20260507014607 | 10 | 240 | 0.0 | 0.0 | 0.00 | 2.41 | 0.03 | 91 | 1012.3 |
| 20260507013113 | 10 | 240 | 0.0 | 0.0 | 0.00 | 2.41 | 0.03 | 91 | 1012.3 |
| 20260507011556 | 10 | 240 | 0.0 | 0.0 | 0.00 | 2.41 | 0.03 | 91 | 1012.2 |
| 20260507010056 | 10 | 240 | 0.0 | 0.0 | 0.00 | 2.41 | 0.03 | 91 | 1012.3 |
| 20260507004555 | 10 | 240 | 0.0 | 0.0 | 0.00 | 2.41 | 0.03 | 91 | 1012.2 |
| 20260507003053 | 10 | 240 | 0.0 | 0.0 | 0.00 | 2.41 | 0.03 | 90 | 1012.3 |
| 20260507001609 | 10 | 240 | 0.0 | 0.0 | 0.00 | 2.41 | 0.03 | 90 | 1012.2 |
| 20260507000051 | 10 | 240 | 0.0 | 0.0 | 0.00 | 2.41 | 0.03 | 90 | 1012.1 |
| 20260506234552 | 10 | 240 | 0.0 | 0.0 | 0.03 | 2.41 | 0.03 | 90 | 1012.1 |
| 20260506233049 | 10 | 240 | 0.0 | 0.0 | 0.03 | 2.41 | 0.03 | 90 | 1011.9 |
| 20260506231549 | 10 | 240 | 0.0 | 0.0 | 0.03 | 2.41 | 0.03 | 90 | 1012.0 |
| 20260506230047 | 10 | 240 | 0.0 | 0.0 | 0.03 | 2.41 | 0.03 | 90 | 1012.0 |
| 20260506224546 | 10 | 240 | 0.0 | 0.0 | 0.00 | 2.39 | 0.00 | 90 | 1011.9 |
| 20260506223101 | 10 | 240 | 0.0 | 0.0 | 0.00 | 2.39 | 0.00 | 90 | 1011.9 |
| 20260506221543 | 10 | 240 | 0.0 | 0.0 | 0.00 | 2.39 | 0.00 | 90 | 1011.8 |
| 20260506220042 | 10 | 240 | 0.0 | 0.0 | 0.00 | 2.39 | 0.00 | 90 | 1011.8 |
| 20260506214542 | 10 | 240 | 0.0 | 0.0 | 0.00 | 2.74 | 2.39 | 90 | 1011.7 |
| 20260506213039 | 10 | 240 | 0.0 | 0.0 | 0.00 | 2.74 | 2.39 | 89 | 1011.6 |
| 20260506211540 | 10 | 240 | 0.0 | 0.0 | 0.00 | 2.74 | 2.39 | 89 | 1011.7 |
| 20260506210040 | 10 | 240 | 0.0 | 0.0 | 0.00 | 3.33 | 2.39 | 90 | 1011.7 |
| 20260506204535 | 10 | 240 | 0.0 | 0.0 | 0.00 | 3.33 | 2.39 | 89 | 1011.5 |
| 20260506203041 | 10 | 240 | 0.0 | 0.0 | 0.00 | 3.33 | 2.39 | 89 | 1011.4 |
| 20260506201532 | 10 | 240 | 0.0 | 0.0 | 0.00 | 3.33 | 2.39 | 89 | 1011.3 |
| 20260506200035 | 11 | 240 | 0.0 | 0.0 | 0.03 | 3.33 | 2.39 | 89 | 1011.2 |
| 20260506194530 | 11 | 240 | 0.0 | 0.0 | 0.08 | 3.33 | 2.39 | 89 | 1011.1 |
| 20260506193026 | 11 | 240 | 0.0 | 0.0 | 0.15 | 3.33 | 2.39 | 88 | 1010.6 |
| 20260506191526 | 11 | 240 | 0.0 | 0.0 | 0.18 | 3.33 | 2.39 | 88 | 1010.4 |
| 20260506190025 | 11 | 240 | 0.0 | 0.0 | 0.18 | 3.30 | 2.39 | 88 | 1010.3 |
| 20260506184525 | 11 | 240 | 0.0 | 0.0 | 0.20 | 3.25 | 2.31 | 87 | 1010.4 |
| 20260506183025 | 11 | 240 | 0.0 | 0.0 | 0.13 | 3.15 | 2.24 | 85 | 1010.4 |
| 20260506181530 | 12 | 244 | 0.0 | 0.0 | 0.10 | 3.15 | 2.21 | 84 | 1010.5 |
| 20260506180031 | 12 | 244 | 0.0 | 0.0 | 0.08 | 3.12 | 2.21 | 81 | 1010.2 |
| 20260506174519 | 13 | 208 | 0.0 | 0.0 | 0.00 | 3.05 | 2.11 | 79 | 1010.0 |
| 20260506173019 | 14 | 206 | 0.0 | 0.0 | 0.00 | 3.05 | 2.11 | 75 | 1009.2 |
| 20260506171535 | 15 | 143 | 0.0 | 0.0 | 0.00 | 3.05 | 2.11 | 72 | 1009.1 |
| 20260506170018 | 15 | 98 | 0.0 | 1.6 | 0.00 | 3.07 | 2.11 | 70 | 1008.6 |
| 20260506164521 | 15 | 33 | 0.0 | 0.0 | 0.00 | 3.07 | 2.11 | 72 | 1008.4 |
| 20260506163021 | 15 | 93 | 0.0 | 0.0 | 0.00 | 3.07 | 2.11 | 73 | 1008.4 |
| 20260506161524 | 15 | 79 | 0.0 | 0.0 | 0.00 | 3.07 | 2.11 | 72 | 1008.6 |
| 20260506160017 | 15 | 136 | 0.0 | 0.0 | 0.00 | 3.07 | 2.11 | 71 | 1008.6 |
| 20260506154515 | 15 | 91 | 0.0 | 3.2 | 0.00 | 3.07 | 2.11 | 71 | 1008.6 |
| 20260506153014 | 16 | 86 | 0.0 | 1.6 | 0.00 | 3.07 | 2.11 | 69 | 1008.6 |
| 20260506151515 | 16 | 137 | 0.0 | 9.7 | 0.00 | 3.07 | 2.11 | 67 | 1008.6 |
| 20260506150017 | 17 | 187 | 0.0 | 1.6 | 0.00 | 3.07 | 2.11 | 66 | 1008.6 |
| 20260506144513 | 17 | 49 | 0.0 | 11.3 | 0.00 | 3.07 | 2.11 | 69 | 1008.5 |
| 20260506143010 | 16 | 87 | 0.0 | 3.2 | 0.00 | 3.07 | 2.11 | 71 | 1008.6 |
| 20260506141507 | 15 | 307 | 1.6 | 8.0 | 0.00 | 3.07 | 2.11 | 74 | 1008.8 |
| 20260506140006 | 16 | 118 | 0.0 | 1.6 | 0.00 | 3.07 | 2.11 | 73 | 1008.9 |
| 20260506134516 | 16 | 113 | 0.0 | 1.6 | 0.00 | 3.07 | 2.11 | 75 | 1009.1 |
| 20260506133000 | 15 | 78 | 0.0 | 0.0 | 0.00 | 3.07 | 2.11 | 76 | 1009.2 |
| 20260506131611 | 15 | 90 | 0.0 | 0.0 | 0.00 | 3.07 | 2.11 | 78 | 1009.4 |
| 20260506130056 | 14 | 327 | 0.0 | 0.0 | 0.00 | 3.07 | 2.11 | 80 | 1009.4 |
| 20260506124552 | 13 | 73 | 0.0 | 0.0 | 0.00 | 3.10 | 2.11 | 83 | 1009.3 |
| 20260506123049 | 13 | 62 | 0.0 | 3.2 | 0.00 | 3.10 | 2.11 | 87 | 1009.4 |
| 20260506121547 | 12 | 131 | 0.0 | 1.6 | 0.00 | 3.10 | 2.11 | 89 | 1009.5 |
| 20260506120043 | 12 | 80 | 0.0 | 1.6 | 0.03 | 3.10 | 2.11 | 90 | 1009.6 |
| 20260506114545 | 12 | 93 | 0.0 | 3.2 | 0.03 | 4.24 | 2.11 | 91 | 1009.7 |